Portada
METAR-TAF:

METAR-TAF

Aeroports :

Wings Field

Filadèlfia-Blue Bell, Pennsilvània, Estats Units d'Amèrica

latitud: 40-08-15N, longitud: 075-15-54W, altitud: 92 m

Observació

L'informe es va fer fa 17 minuts, a les 09:55 UTC
Vent 3 kt del Est/Nord-Est
Temperatura 11°C
Humitat 100%
Pressió 1012 hPa
Visibilitat: 3.2 km
Cel ennuvolat a una alçada de 2900 ft
Cel cobert a una alçada de 3400 ft
pluja, boirina

METAR: KLOM 290955Z AUTO 07003KT 2SM RA BR BKN029 OVC034 11/11 A2989 RMK AO2 T01110109

Hora: 06:12 (10:12 UTC)


TAF: manca

Observacions i pronòstics meteorològics de més de 4000 aeroports (METAR i TAF).

Les estacions disponibles són els punts grocs i vermells al mapa.

Posi el ratolí al punt desitjat per veure el nom de l'estació.

Feu clic per veure les observacions i els pronòstics meteorològics.

Per canviar el mapa: feu clic els botons verds amb una creu de color negre per apropar; al botó verd amb un guió per allunyar la imatge; o en les fletxes verdes per a mapes adjacents.


METAR-TAF: